RH
72 70 66 57 55 60 65 60 50 46 45 35 37 37 40 37 32 34 33 31 28 25 24 26 29 29 29 30 28 25 24 23 23 24 23 22 21 19 18 16 16 17 22 40
66 68 58 51 58 66 61 53 53 48 42 34 36 33 37 28 32 33 32 31 28 26 24 23 22 22 21 19 18 17 17 18 18 18 18 18 18 17 16 16 15 14 14 14
68 67 61 63 74 74 63 53 45 45 40 29 32 27 32 19 28 32 32 31 30 28 26 24 22 21 20 22 22 21 20 17 15 13 14 15 17 18 16 14 12 10 11 11
58 67 51 79 76 66 52 47 43 47 39 39 27 27 28 24 15 30 32 30 29 28 27 25 25 25 24 20 18 16 14 12 14 15 17 18 17 14 12 9 8 8 7 10
54 62 53 70 67 52 50 48 45 42 42 38 36 31 25 27 19 24 26 28 29 30 30 29 25 22 21 20 17 15 16 18 17 15 14 13 12 11 9 8 13 39 33 21
56 42 50 57 48 43 46 48 47 48 48 34 36 36 25 39 21 26 32 31 29 30 28 26 25 24 23 21 18 16 17 15 14 14 16 15 12 11 16 30 50 58 60 46
56 59 51 46 43 46 47 53 55 46 44 38 48 36 31 35 27 33 33 33 32 31 30 28 26 25 25 21 18 17 15 15 17 23 20 22 22 18 42 68 71 75 63 64
62 61 59 50 48 51 52 56 58 57 56 63 59 28 32 30 30 34 36 35 34 32 25 23 24 26 24 22 18 16 17 23 34 35 23 23 38 37 59 69 70 64 70 98
80 59 73 63 62 62 58 57 62 61 52 52 43 38 33 29 28 28 35 32 29 26 25 26 29 28 26 20 19 22 21 27 35 29 20 18 46 45 56 70 72 68 94 98
74 76 83 74 71 65 63 61 62 64 57 54 43 42 74 40 30 29 34 30 31 33 35 36 37 31 24 24 32 28 28 27 26 25 26 18 29 45 50 55 75 95 100 88
90 88 88 76 73 70 68 65 67 68 58 57 50 51 56 50 32 33 39 36 42 46 52 52 43 31 32 35 42 37 37 33 25 20 23 24 30 45 47 49 60 83 100 95
94 93 93 78 86 78 86 70 72 76 62 63 57 39 78 53 44 39 43 46 68 76 74 62 46 41 58 60 52 42 39 39 32 34 42 42 46 47 43 42 44 97 91 86
99 88 92 94 98 94 77 82 84 92 79 65 79 64 60 81 80 76 60 60 61 68 70 66 47 40 46 79 71 59 49 37 35 45 45 43 38 36 35 35 39 52 100 100
99 96 99 97 99 100 100 94 100 95 96 80 84 89 94 85 100 100 52 63 65 60 67 64 50 52 96 84 67 58 49 50 45 49 54 49 41 42 39 35 39 39 62 100
100 99 100 99 100 100 100 100 94 95 99 99 87 100 86 100 100 98 70 56 73 62 59 64 49 80 95 84 66 58 59 62 58 57 54 51 46 30 31 35 34 37 40 46
100 96 100 98 89 100 100 91 76 100 88 91 100 93 83 100 100 100 82 63 62 58 58 47 48 56 63 70 79 84 79 73 75 70 55 20 8 6 7 7 11 13 29 34
100 99 100 91 100 100 99 55 89 85 87 94 94 90 82 100 100 84 89 45 43 51 44 60 64 28 24 81 86 80 84 84 82 49 17 19 23 20 14 13 11 14 20 33
100 100 100 97 100 100 70 68 72 75 83 71 95 100 100 100 88 37 42 62 57 40 62 51 60 42 75 100 94 98 98 84 28 30 51 58 56 55 52 46 55 68 100 100
100 100 100 100 98 96 94 70 75 79 65 63 64 41 61 71 30 39 49 44 41 36 37 23 38 66 87 97 100 100 60 21 40 58 71 88 86 96 99 100 100 100 100 100
100 100 100 100 98 92 64 77 100 84 65 55 49 42 37 32 37 45 33 20 17 20 22 32 95 85 100 100 100 39 28 38 59 80 81 78 96 100 100 100 100 100 100 100
100 100 99 99 100 89 60 65 84 60 41 39 36 41 69 71 46 35 25 20 17 17 42 82 100 100 100 97 28 42 42 57 85 78 91 85 97 100 100 100 99 88 52 46
86 96 86 78 64 54 45 39 37 34 24 29 36 72 70 49 42 27 21 17 31 59 94 100 100 100 87 30 54 52 65 90 97 93 80 100 100 98 92 91 72 53 42 37
47 38 55 79 78 97 100 100 99 75 91 100 100 89 61 47 32 20 18 33 87 100 100 100 100 67 28 65 73 63 92 94 86 82 100 94 94 90 57 48 48 43 38 34
62 51 44 66 48 57 81 93 100 99 93 86 69 48 38 32 24 19 34 84 100 100 100 95 37 26 58 74 69 89 91 87 89 100 100 94 72 53 46 47 45 40 36 33
96 100 68 69 56 46 40 44 65 91 72 56 55 56 45 37 39 26 72 100 100 87 55 32 34 56 68 62 81 96 93 100 100 93 74 67 57 45 42 42 40 36 33 28
96 89 94 82 90 100 87 95 85 82 89 83 75 67 58 53 52 75 100 100 61 29 40 48 52 65 74 62 89 92 97 100 84 76 59 40 38 41 42 40 36 33 30 30
Wind_Speed
38 39 37 37 42 40 41 39 40 38 41 43 37 41 40 44 38 38 36 36 38 39 40 40 41 42 43 45 46 47 49 51 53 54 56 57 58 59 59 60 58 58 56 54
38 37 37 41 39 38 38 39 40 40 43 42 41 44 39 47 38 39 38 38 38 39 40 41 43 44 45 47 49 51 53 54 56 58 59 60 61 60 59 58 58 57 56 55
38 42 42 41 39 39 38 41 41 41 44 44 41 43 41 46 39 36 38 40 40 42 43 44 45 46 47 49 51 53 55 57 59 60 60 59 55 52 53 53 54 55 55 56
41 42 42 38 39 39 41 44 42 42 43 41 43 43 41 45 44 39 40 41 42 43 45 47 48 49 50 51 53 56 59 61 59 58 54 53 52 53 54 54 54 53 55 57
43 41 45 40 40 43 39 45 44 41 41 43 42 44 44 45 45 46 46 47 47 47 48 48 49 50 52 55 55 56 55 52 49 49 50 51 53 54 53 51 51 53 56 58
45 48 43 42 45 43 46 43 43 42 43 47 42 44 42 42 48 49 47 48 50 50 50 49 50 53 57 56 54 53 50 48 49 50 52 50 49 47 50 50 52 50 52 54
45 49 46 48 47 47 45 44 44 46 47 45 41 45 44 48 47 48 48 50 49 49 49 51 55 57 55 52 48 46 45 46 46 44 41 42 42 45 48 46 49 50 48 47
49 53 51 48 48 45 46 46 46 44 42 38 42 48 50 48 45 48 49 48 48 49 52 54 55 54 51 47 45 43 43 43 42 40 39 40 38 40 39 46 52 49 51 52
50 49 53 51 47 49 49 51 44 49 48 50 50 48 51 47 50 50 47 46 49 51 51 51 49 46 46 43 43 41 42 39 37 36 36 39 37 36 34 34 37 41 44 41
51 50 54 53 53 52 53 52 49 48 49 50 49 47 36 45 49 50 47 48 47 49 47 45 44 42 42 43 41 39 39 38 38 38 40 38 40 36 31 31 32 38 34 33
52 52 56 57 57 54 50 50 51 51 50 47 47 42 45 47 48 49 48 45 46 45 43 43 40 40 42 43 43 42 42 42 42 42 43 42 40 38 37 31 29 34 35 28
54 58 56 58 54 50 49 54 50 49 47 46 45 47 45 46 47 47 47 44 43 44 42 42 42 41 43 47 45 46 45 43 41 40 40 38 37 35 35 33 31 29 29 32
53 59 58 54 50 52 53 46 45 45 48 45 40 35 39 38 42 42 42 43 44 45 46 44 42 43 47 44 45 44 43 40 41 40 38 38 38 38 36 35 33 32 30 29
63 61 59 49 39 39 42 35 31 35 40 39 41 37 35 39 38 38 43 43 43 46 47 44 43 46 44 40 39 40 40 37 39 40 38 39 39 39 36 36 35 33 34 29
56 56 49 49 46 39 38 37 40 41 41 39 37 41 38 42 38 38 44 47 46 46 46 44 45 42 39 42 43 42 42 40 39 38 38 41 40 37 36 34 34 33 33 35
53 49 45 49 50 48 52 49 52 47 47 47 47 46 44 46 43 50 59 53 51 50 49 46 45 44 44 40 40 40 41 41 39 39 39 39 40 38 37 35 33 32 32 32
44 42 41 48 47 50 53 51 55 53 49 50 53 51 46 43 41 50 54 52 49 46 45 42 42 43 43 40 41 43 42 40 38 37 37 37 37 38 34 31 29 28 25 25
32 36 37 39 39 43 50 44 44 48 46 45 40 40 40 41 45 52 49 46 45 43 40 41 41 40 39 41 43 42 39 36 33 33 31 31 33 30 23 17 17 15 17 16
38 42 43 42 46 47 45 46 47 46 47 42 41 43 38 42 46 44 45 45 43 43 44 41 39 40 41 43 42 38 33 31 28 28 27 27 23 15 11 13 14 17 20 17
44 46 45 45 45 45 45 35 37 45 46 39 43 44 44 47 42 41 36 34 36 41 40 35 40 38 42 41 37 30 30 24 24 22 19 16 11 12 11 12 17 14 10 9
39 41 45 40 41 42 34 35 44 44 37 39 40 41 41 39 35 32 30 35 37 36 34 34 38 41 41 33 27 27 22 21 19 17 17 13 14 10 7 9 6 4 4 6
29 30 27 28 33 35 32 36 39 37 38 37 40 38 35 30 31 31 32 37 36 33 32 35 37 37 28 26 24 22 20 18 17 15 13 7 10 8 6 4 4 5 7 10
35 35 34 34 34 29 21 21 26 30 27 25 29 29 28 30 29 32 34 33 31 30 33 35 30 24 24 22 22 20 19 19 15 14 13 10 8 5 4 6 7 9 10 11
31 34 34 37 34 38 37 38 35 31 25 25 24 25 28 29 30 30 31 32 31 32 30 24 24 23 22 21 19 18 19 16 14 15 16 11 9 7 8 10 11 11 11 11
25 27 30 33 34 34 34 37 41 37 33 34 33 33 32 32 30 30 32 31 28 25 24 25 23 22 21 20 19 19 18 15 14 12 11 11 10 10 11 13 14 15 16 17
24 24 25 23 25 26 27 27 24 24 28 31 33 34 34 28 28 29 30 26 23 24 24 23 24 24 23 22 20 19 19 19 15 14 14 14 14 14 14 16 17 19 21 21
Wind_Direction
257 257 259 261 258 261 266 266 271 271 274 277 282 279 281 283 287 283 283 284 283 283 284 284 284 283 283 282 281 280 279 279 279 279 278 277 278 277 277 276 276 276 273 272
257 259 256 255 265 262 261 263 267 269 271 279 281 279 285 281 287 286 287 285 285 285 284 282 282 282 283 283 282 282 281 281 282 281 282 282 281 280 279 279 278 277 276 274
259 258 257 259 259 258 259 263 265 268 274 277 274 276 279 281 284 285 284 284 285 284 285 285 285 286 286 286 286 286 286 286 286 286 285 285 284 278 276 273 271 270 269 269
259 257 261 252 253 255 258 263 263 270 272 273 273 277 281 282 279 283 281 282 283 284 285 286 287 288 288 288 289 291 293 294 293 291 289 286 281 280 277 277 274 272 269 263
260 255 258 252 254 256 258 262 269 268 267 269 272 277 283 283 282 283 286 287 286 287 288 288 290 292 295 298 300 300 299 297 293 290 287 284 282 281 281 279 275 272 264 259
252 257 255 255 255 258 261 264 264 266 270 271 277 275 277 282 283 285 286 284 285 288 291 293 294 296 298 298 300 299 297 295 292 289 287 287 288 286 281 276 276 279 269 260
251 256 255 253 255 256 259 259 264 269 273 277 276 274 276 279 281 285 283 284 287 289 292 294 295 297 297 296 295 293 292 289 287 286 285 280 286 288 279 269 270 270 264 263
245 245 252 254 254 254 253 259 263 267 270 269 265 278 279 278 280 279 283 285 287 291 293 295 296 297 294 294 295 293 289 289 291 291 285 279 277 287 283 270 264 263 261 267
249 241 245 247 243 249 259 259 263 263 264 265 269 272 277 279 279 283 283 287 290 292 294 296 295 292 294 294 292 290 290 291 292 291 285 280 276 278 283 286 266 258 255 263
235 230 242 246 246 249 254 260 261 263 264 268 270 273 272 274 278 282 286 288 290 292 292 290 292 294 292 291 288 287 290 292 294 295 292 287 283 279 283 289 278 259 251 262
231 229 239 246 249 254 255 259 261 263 264 265 269 271 267 272 279 282 284 285 289 287 285 288 292 290 287 287 284 285 290 291 293 294 291 287 284 278 280 282 288 263 245 246
231 240 241 252 249 250 258 260 258 261 268 269 269 268 266 271 274 275 277 283 284 284 286 289 292 284 284 283 282 284 288 290 291 293 290 284 282 276 274 275 278 280 260 245
231 238 244 247 253 257 261 262 266 268 271 268 263 267 265 270 266 272 275 281 281 285 286 286 286 281 284 283 282 284 287 290 291 291 289 286 288 285 279 274 271 272 269 248
243 248 249 253 258 250 253 259 255 258 249 261 262 262 259 270 274 275 273 275 281 285 284 286 284 285 279 279 282 285 287 289 291 291 290 290 292 288 280 277 273 270 267 260
249 252 251 252 248 236 239 233 241 247 253 255 255 255 258 256 264 278 269 277 281 284 284 283 284 282 278 287 285 285 288 291 290 289 291 292 288 283 280 276 275 272 267 265
250 252 252 250 251 245 233 234 249 240 248 253 251 255 259 258 268 272 278 280 281 285 285 285 281 281 280 279 281 283 287 287 288 289 291 290 287 283 279 273 271 271 270 269
249 249 248 250 253 254 253 259 249 254 256 253 255 258 262 266 271 272 271 283 283 282 285 279 281 281 281 281 283 287 288 286 287 288 290 289 287 286 281 273 266 265 264 270
229 234 238 245 241 242 257 255 257 255 255 259 262 264 263 265 266 273 278 281 284 284 277 280 281 279 277 278 283 285 283 284 285 289 290 293 292 288 283 266 261 253 253 261
226 228 234 238 239 249 249 258 260 264 261 261 259 265 267 267 268 275 279 280 279 278 276 278 269 271 275 280 281 280 281 282 284 288 287 292 290 286 265 239 241 243 243 249
243 248 245 250 254 253 266 258 252 255 265 265 261 263 266 266 270 273 276 282 283 277 275 273 269 272 275 275 276 278 280 279 283 285 284 286 293 273 259 233 242 229 243 244
251 252 253 253 256 258 263 259 260 261 271 266 264 263 264 261 263 270 282 289 293 278 270 264 262 266 270 271 272 275 272 270 271 275 282 282 296 273 220 197 176 183 224 266
251 251 255 257 261 267 264 261 264 265 263 262 259 260 252 256 265 277 287 292 279 271 265 260 260 264 265 268 267 265 264 255 264 260 268 251 234 196 167 177 207 250 284 290
248 252 253 252 253 254 259 250 267 257 254 253 251 248 255 260 270 281 288 280 268 263 258 259 259 260 259 261 263 255 246 252 244 246 243 216 212 196 237 262 276 289 289 289
255 255 250 252 252 251 253 255 254 263 266 253 261 263 260 264 274 289 280 270 264 261 261 256 257 251 254 255 243 237 242 240 241 241 228 213 223 242 267 277 285 292 303 313
249 251 257 256 258 257 261 259 261 265 272 275 265 259 257 265 271 281 268 267 257 255 255 254 246 248 250 235 235 231 230 232 220 210 222 230 240 256 270 280 289 297 306 313
256 254 253 249 249 257 255 255 255 259 261 263 261 258 257 260 265 266 261 254 249 251 252 250 248 248 236 229 222 216 226 220 210 221 232 239 244 251 265 277 285 292 296 301